Starlink 30454

operational
NORAD ID: 57915 Int'l Des: 2023-147 Owner: SPXS Country: US Constellation: starlink
LEOCIRCULAR

关于 Starlink 30454

正在加载描述...

实时位置

正在加载3D地球...

即将过境

高度历史

Altitude vs Time

uPlot chart will show altitude changes over time

两行轨道根数

1 57915U 23147C 25307.64347682 -.00000001 00000-0 14967-4 0 9994
2 57915 43.0042 291.2738 0001017 273.2971 86.7755 15.02535524117621
Epoch: Nov 3, 2025 • Age: 10 hours

当前状态

高度 559.0 km
速度 7.58 km/s
星下点 -1.53°S, 131.15°W
发射日期 Sep 24, 2023
运行时间 2.1 years
类型 internet

技术详情

分类 Payload
质量 730.00 kg
干质量 700.00 kg
总质量 730.00 kg
长度 0.30 m
直径 4.10 m
跨度 29.00 m
形状 Box + pan
制造商 SPXS
平台类型 Starlink V2M
阶段状态 In Orbit
所有者/国家 SPXS/US

大型星座

Loading constellations...